EW2077 Weather Reports


Display with metric or nautical units.
time (UTC)temp
F
wind
direction
speed
MPH
gust
MPH
rain 1hr
in
rain 24hr
in
rain mn
in
humidity
%
barometer
mb
20260905154522 74 16 0.0 0.0 0.00 0.00 0.00 39 1032.9
20260905153021 71 16 0.0 0.0 0.00 0.00 0.00 42 1033.0
20260905151519 68 16 0.0 0.0 0.00 0.00 0.00 47 1033.0
20260905150017 65 16 0.0 0.0 0.00 0.00 0.00 52 1033.2
20260905144511 61 16 0.0 0.0 0.00 0.00 0.00 60 1033.5
20260905143001 59 16 0.0 0.0 0.00 0.00 0.00 65 1033.6
20260905141603 56 16 0.0 0.0 0.00 0.00 0.00 69 1033.6
20260905140126 54 16 0.0 0.0 0.00 0.00 0.00 69 1033.5
20260905134603 54 16 0.0 0.0 0.00 0.00 0.00 70 1033.5
20260905133058 53 16 0.0 0.0 0.00 0.00 0.00 69 1033.5
20260905131611 52 16 0.0 0.0 0.00 0.00 0.00 69 1033.6
20260905130058 52 16 0.0 0.0 0.00 0.00 0.00 68 1033.6
20260905124557 52 16 0.0 0.0 0.00 0.00 0.00 68 1033.5
20260905123057 52 16 0.0 0.0 0.00 0.00 0.00 69 1033.2
20260905121553 52 16 0.0 0.0 0.00 0.00 0.00 69 1033.2
20260905120051 52 17 0.0 0.0 0.00 0.00 0.00 68 1033.1
20260905114550 52 16 0.0 0.0 0.00 0.00 0.00 69 1033.1
20260905113051 51 16 0.0 0.0 0.00 0.00 0.00 70 1033.1
20260905111552 52 16 0.0 0.0 0.00 0.00 0.00 69 1033.1
20260905110047 52 16 0.0 0.0 0.00 0.00 0.00 69 1033.1
20260905104552 52 17 0.0 0.0 0.00 0.00 0.00 68 1032.9
20260905103042 52 17 0.0 0.0 0.00 0.00 0.00 68 1032.9
20260905101539 53 16 0.0 0.0 0.00 0.00 0.00 68 1032.7
20260905100042 53 16 0.0 0.0 0.00 0.00 0.00 67 1032.8
20260905094536 53 16 0.0 0.0 0.00 0.00 0.00 67 1032.8
20260905093035 53 16 0.0 0.0 0.00 0.00 0.00 66 1032.6
20260905091535 54 16 0.0 0.0 0.00 0.00 0.00 64 1032.6
20260905090030 54 16 0.0 0.0 0.00 0.00 0.00 64 1032.6
20260905084529 54 16 0.0 0.0 0.00 0.00 0.00 63 1032.6
20260905083028 54 16 0.0 0.0 0.00 0.00 0.00 63 1032.7
20260905081525 55 16 0.0 0.0 0.00 0.00 0.00 62 1032.6
20260905080023 55 16 0.0 0.0 0.00 0.00 0.00 62 1032.6
20260905074525 55 17 0.0 0.0 0.00 0.00 0.00 61 1032.5
20260905073020 56 16 0.0 0.0 0.00 0.00 0.00 61 1032.7
20260905071518 56 16 0.0 0.0 0.00 0.00 0.00 61 1032.6
20260905070015 56 16 0.0 0.0 0.00 0.00 0.00 60 1032.6
20260905064512 57 16 0.0 0.0 0.00 0.00 0.00 59 1032.5
20260905063009 58 16 0.0 0.0 0.00 0.00 0.00 58 1032.2
20260905061516 59 16 0.0 0.0 0.00 0.00 0.00 57 1032.4
20260905060004 59 16 0.0 0.0 0.00 0.00 0.00 56 1032.2
20260905054501 60 16 0.0 0.0 0.00 0.00 0.00 55 1032.2
20260905053002 61 16 0.0 0.0 0.00 0.00 0.00 53 1032.1
20260905051600 63 16 0.0 0.0 0.00 0.00 0.00 51 1032.2
20260905051503 63 16 0.0 0.0 0.00 0.00 0.00 51 1032.2
20260905050100 64 16 0.0 0.0 0.00 0.00 0.00 49 1032.0
20260905044600 66 16 0.0 0.0 0.00 0.00 0.00 47 1032.0
20260905043059 66 16 0.0 0.0 0.00 0.00 0.00 46 1032.0
20260905041559 67 17 0.0 0.0 0.00 0.00 0.00 46 1032.0
20260905040058 68 18 0.0 1.0 0.00 0.00 0.00 45 1032.0
20260905034611 69 36 0.0 6.0 0.00 0.00 0.00 43 1032.1
20260905033111 70 355 0.0 3.0 0.00 0.00 0.00 43 1032.0
20260905031600 70 19 0.0 4.0 0.00 0.00 0.00 43 1031.9
20260905030059 70 355 0.0 4.0 0.00 0.00 0.00 41 1031.8
20260905024556 69 333 0.0 2.0 0.00 0.00 0.00 40 1031.9
20260905023055 70 200 0.0 0.0 0.00 0.00 0.00 39 1031.7
20260905021555 71 200 0.0 0.0 0.00 0.00 0.00 38 1031.3
20260905020054 71 200 0.0 0.0 0.00 0.00 0.00 36 1031.1
20260905014554 72 200 0.0 0.0 0.00 0.00 0.00 36 1031.0
20260905013109 72 200 0.0 0.0 0.00 0.00 0.00 35 1030.8
20260905011555 73 200 0.0 0.0 0.00 0.00 0.00 35 1030.9
20260905010054 74 200 0.0 0.0 0.00 0.00 0.00 34 1030.9
20260905004630 75 200 0.0 0.0 0.00 0.00 0.00 33 1030.9
20260905003052 76 200 0.0 1.0 0.00 0.00 0.00 32 1030.9
20260905001558 77 200 0.0 0.0 0.00 0.00 0.00 30 1030.9
20260905000052 78 200 0.0 0.0 0.00 0.00 0.00 29 1030.9
20260904234549 78 198 0.0 2.0 0.00 0.00 0.00 27 1030.7
20260904233049 79 198 0.0 0.0 0.00 0.00 0.00 27 1030.6
20260904231547 79 198 0.0 1.0 0.00 0.00 0.00 25 1030.6
20260904230046 79 198 0.0 3.0 0.00 0.00 0.00 26 1030.5
20260904224544 78 198 0.0 3.0 0.00 0.00 0.00 26 1030.5
20260904223045 80 198 0.0 4.0 0.00 0.00 0.00 25 1030.6
20260904221549 81 198 1.0 4.0 0.00 0.00 0.00 24 1030.5
20260904220043 80 197 0.0 2.0 0.00 0.00 0.00 24 1030.6
20260904214542 82 197 0.0 3.0 0.00 0.00 0.00 24 1030.6
20260904213042 82 196 0.0 3.0 0.00 0.00 0.00 24 1030.6
20260904211539 83 197 0.0 4.0 0.00 0.00 0.00 24 1030.8
20260904210034 82 193 0.0 4.0 0.00 0.00 0.00 24 1030.9
20260904204533 82 187 0.0 3.0 0.00 0.00 0.00 22 1031.1
20260904203033 81 187 0.0 5.0 0.00 0.00 0.00 24 1031.2
20260904201528 80 173 0.0 3.0 0.00 0.00 0.00 24 1031.4
20260904200026 80 199 1.0 5.0 0.00 0.00 0.00 23 1031.7
20260904194530 79 192 0.0 2.0 0.00 0.00 0.00 26 1031.6
20260904193024 77 190 0.0 2.0 0.00 0.00 0.00 26 1031.7
20260904191524 78 190 1.0 5.0 0.00 0.00 0.00 25 1031.7
20260904190021 81 205 0.0 6.0 0.00 0.00 0.00 24 1031.9
20260904184524 81 190 1.0 5.0 0.00 0.00 0.00 24 1032.0
20260904183016 80 196 1.0 7.0 0.00 0.00 0.00 24 1032.0
20260904181521 79 182 0.0 2.0 0.00 0.00 0.00 24 1032.1
20260904180033 78 181 0.0 2.0 0.00 0.00 0.00 23 1032.4
20260904174514 79 188 1.0 6.0 0.00 0.00 0.00 22 1032.5
20260904173017 79 182 0.0 3.0 0.00 0.00 0.00 22 1032.6
20260904171514 77 182 0.0 3.0 0.00 0.00 0.00 25 1032.7
20260904170005 77 181 0.0 4.0 0.00 0.00 0.00 23 1032.7
20260904164502 76 180 2.0 5.0 0.00 0.00 0.00 26 1032.9
20260904163100 75 166 0.0 4.0 0.00 0.00 0.00 27 1033.0
20260904161559 73 161 0.0 0.0 0.00 0.00 0.00 30 1033.1
20260904160054 73 161 0.0 3.0 0.00 0.00 0.00 29 1033.2